TimeCDT,TemperatureF,Dew PointF,Humidity,Sea Level PressureIn,VisibilityMPH,Wind Direction,Wind SpeedMPH,Gust SpeedMPH,PrecipitationIn,Events,Conditions,WindDirDegrees,DateUTC
12:53 AM,62.6,57.2,82,29.81,10.0,Calm,Calm,-,N/A,,Clear,0,2012-10-23 05:53:00
1:53 AM,70.0,60.1,71,29.78,10.0,South,8.1,-,N/A,,Scattered Clouds,180,2012-10-23 06:53:00
2:53 AM,69.1,60.1,73,29.77,10.0,Variable,3.5,-,N/A,,Scattered Clouds,0,2012-10-23 07:53:00
3:53 AM,69.1,62.1,78,29.76,10.0,South,6.9,-,N/A,,Mostly Cloudy,190,2012-10-23 08:53:00
4:53 AM,69.1,62.1,78,29.75,10.0,South,8.1,-,N/A,,Overcast,180,2012-10-23 09:53:00
5:37 AM,69.8,62.6,78,29.78,10.0,Variable,6.9,-,N/A,,Overcast,0,2012-10-23 10:37:00
5:53 AM,69.1,63.0,81,29.75,10.0,SSW,5.8,-,N/A,,Overcast,200,2012-10-23 10:53:00
6:53 AM,70.0,64.0,81,29.75,10.0,SSE,5.8,-,N/A,,Overcast,150,2012-10-23 11:53:00
7:53 AM,71.1,64.0,78,29.75,10.0,SE,6.9,-,N/A,,Overcast,140,2012-10-23 12:53:00
8:53 AM,72.0,64.9,78,29.76,10.0,South,6.9,-,N/A,,Overcast,170,2012-10-23 13:53:00
9:53 AM,73.0,64.9,76,29.77,10.0,South,9.2,-,N/A,,Overcast,180,2012-10-23 14:53:00
10:53 AM,73.9,64.9,73,29.76,10.0,South,9.2,-,N/A,,Overcast,190,2012-10-23 15:53:00
11:53 AM,77.0,64.9,66,29.74,10.0,South,11.5,21.9,N/A,,Overcast,190,2012-10-23 16:53:00
12:02 PM,78.8,64.4,61,29.75,10.0,South,15.0,19.6,N/A,,Overcast,180,2012-10-23 17:02:00
12:18 PM,78.8,64.4,61,29.74,10.0,South,16.1,-,N/A,,Overcast,180,2012-10-23 17:18:00
12:53 PM,81.0,64.9,58,29.70,10.0,South,20.7,27.6,N/A,,Mostly Cloudy,180,2012-10-23 17:53:00
1:53 PM,84.0,64.0,51,29.67,10.0,South,12.7,27.6,N/A,,Partly Cloudy,190,2012-10-23 18:53:00
2:53 PM,84.9,64.0,49,29.65,10.0,South,23.0,29.9,N/A,,Clear,180,2012-10-23 19:53:00
3:53 PM,84.9,64.0,49,29.64,10.0,South,18.4,33.4,N/A,,Partly Cloudy,170,2012-10-23 20:53:00
4:53 PM,84.0,64.0,51,29.65,10.0,South,21.9,28.8,N/A,,Partly Cloudy,170,2012-10-23 21:53:00
5:53 PM,81.0,64.9,58,29.67,10.0,South,19.6,29.9,N/A,,Clear,170,2012-10-23 22:53:00
6:53 PM,78.1,64.9,64,29.69,10.0,SSE,13.8,21.9,N/A,,Clear,160,2012-10-23 23:53:00
7:53 PM,75.9,64.9,69,29.71,10.0,SSE,13.8,-,N/A,,Clear,160,2012-10-24 00:53:00
8:53 PM,75.0,64.9,71,29.73,10.0,South,11.5,19.6,N/A,,Clear,170,2012-10-24 01:53:00
9:53 PM,73.9,64.9,73,29.74,10.0,South,10.4,-,N/A,,Clear,170,2012-10-24 02:53:00
10:53 PM,73.9,64.9,73,29.74,10.0,South,11.5,-,N/A,,Clear,180,2012-10-24 03:53:00
11:53 PM,73.9,66.0,76,29.74,10.0,South,10.4,-,N/A,,Clear,180,2012-10-24 04:53:00